EA3ANS-1 Weather Reports


time (UTC)temp
C
wind
direction
speed
KPH
gust
KPH
rain 1hr
cm
rain 24hr
cm
rain mn
cm
humidity
%
barometer
mb
20260506180242 18 115 11.3 11.3 0.00 0.43 0.00 1010.5
20260506175245 19 145 9.7 6.4 0.00 0.43 0.00 1010.3
20260506174244 19 117 6.4 8.0 0.00 0.43 0.00 1010.3
20260506173246 20 131 6.4 6.4 0.00 0.43 0.00 1010.2
20260506172249 20 113 3.2 4.8 0.00 0.43 0.00 1010.1
20260506171245 19 128 6.4 8.0 0.00 0.43 0.00 1010.0
20260506170244 20 135 8.0 8.0 0.00 0.43 0.00 1010.0
20260506165244 19 143 11.3 14.5 0.00 0.43 0.00 1010.0
20260506164244 19 132 11.3 8.0 0.00 0.43 0.00 1009.9
20260506163244 20 118 9.7 12.9 0.00 0.43 0.00 1009.8
20260506162246 20 158 11.3 12.9 0.00 0.43 0.00 1009.8
20260506161248 20 155 14.5 6.4 0.00 0.43 0.00 1009.6
20260506160246 20 70 12.9 12.9 0.00 0.43 0.00 1009.6
20260506155249 21 138 11.3 11.3 0.00 0.43 0.00 1009.6
20260506154244 21 163 11.3 17.7 0.00 0.43 0.00 1009.6
20260506153244 22 335 3.2 4.8 0.00 0.43 0.00 1009.6
20260506152245 22 134 4.8 6.4 0.00 0.43 0.00 1009.7
20260506151247 22 250 8.0 9.7 0.00 0.43 0.00 1009.7
20260506150250 22 253 3.2 4.8 0.00 0.43 0.00 1009.8
20260506145246 22 235 12.9 16.1 0.00 0.43 0.00 1009.9
20260506144249 22 142 3.2 0.0 0.00 0.43 0.00 1009.9
20260506143243 21 236 14.5 14.5 0.00 0.43 0.00 1010.1
20260506142245 21 252 11.3 12.9 0.00 0.43 0.00 1010.3
20260506141244 22 283 4.8 6.4 0.00 0.43 0.00 1010.3
20260506140245 21 284 14.5 6.4 0.00 0.43 0.00 1010.5
20260506135248 21 228 6.4 4.8 0.00 0.43 0.00 1010.4
20260506134244 21 242 4.8 11.3 0.00 0.43 0.00 1010.7
20260506133245 20 222 1.6 0.0 0.00 0.43 0.00 1010.7
20260506132245 20 307 8.0 9.7 0.00 0.43 0.00 1010.8
20260506131244 21 302 8.0 6.4 0.00 0.43 0.00 1011.0
20260506130244 20 267 11.3 11.3 0.00 0.43 0.00 1011.1
20260506125244 21 221 8.0 8.0 0.00 0.43 0.00 1011.1
20260506124246 20 249 14.5 9.7 0.00 0.43 0.00 1011.0
20260506123244 21 217 4.8 11.3 0.00 0.43 0.00 1011.0
20260506122245 21 215 14.5 6.4 0.00 0.43 0.00 1011.2
20260506121244 20 160 4.8 8.0 0.00 0.43 0.00 1011.2
20260506120246 20 309 8.0 11.3 0.00 0.43 0.00 1011.3
20260506115247 20 266 8.0 4.8 0.00 0.43 0.00 1011.4
20260506114250 20 309 14.5 14.5 0.00 0.43 0.00 1011.4
20260506113253 20 197 3.2 6.4 0.00 0.43 0.00 1011.4
20260506112250 20 242 16.1 14.5 0.00 0.43 0.00 1011.6
20260506111253 20 338 6.4 6.4 0.00 0.43 0.00 1011.6
20260506110249 19 207 9.7 6.4 0.00 0.43 0.00 1011.8
20260506105243 19 194 6.4 6.4 0.00 0.43 0.00 1011.8
20260506104245 19 283 4.8 9.7 0.00 0.43 0.00 1011.9
20260506103248 18 259 9.7 8.0 0.00 0.43 0.00 1011.9
20260506102245 18 229 9.7 9.7 0.00 0.43 0.00 1012.0
20260506101243 17 257 11.3 6.4 0.00 0.43 0.00 1012.1
20260506100246 18 32 4.8 3.2 0.00 0.43 0.00 1012.2
20260506095240 17 108 0.0 0.0 0.00 0.43 0.00 1012.4
20260506094243 17 177 1.6 0.0 0.00 0.43 0.00 1012.5
20260506093246 16 51 0.0 1.6 0.00 0.43 0.00 1012.6
20260506092244 17 333 1.6 4.8 0.00 0.43 0.00 1012.8
20260506091247 16 84 4.8 6.4 0.00 0.43 0.00 1012.7
20260506090243 15 0 9.7 6.4 0.00 0.43 0.00 1012.8
20260506085241 15 342 8.0 14.5 0.00 0.43 0.00 1012.7
20260506084242 15 27 4.8 4.8 0.00 0.43 0.00 1012.8
20260506083243 14 311 6.4 12.9 0.00 0.43 0.00 1012.8
20260506082241 13 13 6.4 9.7 0.00 0.43 0.00 1012.7
20260506081242 13 340 12.9 12.9 0.00 0.43 0.00 1012.6
20260506080245 13 332 9.7 12.9 0.00 0.43 0.00 1012.5
20260506073241 12 293 9.7 14.5 0.00 0.43 0.00 1012.4
20260506072241 12 319 11.3 11.3 0.00 0.43 0.00 1012.1
20260506071241 11 336 11.3 14.5 0.00 0.43 0.00 1012.5
20260506070243 10 357 12.9 8.0 0.00 0.43 0.00 1012.6
20260506062243 10 1 9.7 6.4 0.00 0.43 0.00 1012.5
20260506061240 10 25 9.7 8.0 0.00 0.43 0.00 1012.5
20260506060243 9 318 11.3 11.3 0.00 0.43 0.00 1012.3
20260506051246 8 300 8.0 8.0 0.00 0.43 0.00 1012.1
20260506050248 9 309 8.0 6.4 0.00 0.43 0.00 1011.9
20260506044254 9 280 6.4 4.8 0.00 0.43 0.00 1011.7
20260506043254 9 359 8.0 8.0 0.00 0.43 0.00 1011.9
20260506042248 9 308 8.0 3.2 0.00 0.43 0.00 1011.7
20260506041245 9 314 3.2 3.2 0.00 0.43 0.00 1011.6
20260506040242 9 305 0.0 4.8 0.00 0.43 0.00 1011.5
20260506035242 9 281 6.4 1.6 0.00 0.43 0.00 1011.6
20260506034244 10 325 8.0 8.0 0.00 0.43 0.00 1011.5
20260506033247 10 314 8.0 6.4 0.00 0.43 0.00 1011.4
20260506032249 10 329 6.4 8.0 0.00 0.43 0.00 1011.3
20260506031242 10 338 11.3 6.4 0.00 0.43 0.00 1011.3
20260506030241 10 188 0.0 0.0 0.00 0.43 0.00 1011.3
20260506025242 10 309 4.8 6.4 0.00 0.43 0.00 1011.3
20260506024242 10 332 6.4 4.8 0.00 0.43 0.00 1011.2
20260506023242 10 273 0.0 3.2 0.00 0.43 0.00 1011.2
20260506022245 10 245 4.8 0.0 0.00 0.43 0.00 1011.1
20260506021247 10 350 0.0 0.0 0.00 0.43 0.00 1011.1
20260506020245 10 350 0.0 0.0 0.00 0.43 0.00 1011.0
20260506015243 10 350 0.0 0.0 0.00 0.43 0.00 1010.9
20260506014246 10 350 0.0 0.0 0.00 0.43 0.00 1010.9
20260506013243 10 350 0.0 0.0 0.00 0.43 0.00 1010.8
20260506012244 11 350 0.0 0.0 0.00 0.43 0.00 1010.8
20260506011247 11 350 0.0 0.0 0.00 0.43 0.00 1010.9
20260506010247 11 350 0.0 0.0 0.00 0.43 0.00 1010.9
20260506005244 11 350 0.0 0.0 0.00 0.43 0.00 1011.0
20260506004246 11 321 6.4 3.2 0.00 0.43 0.00 1011.1
20260506003242 11 335 3.2 8.0 0.00 0.43 0.00 1011.2
20260506002245 11 3 4.8 6.4 0.00 0.43 0.00 1011.2
20260506001241 11 332 9.7 11.3 0.00 0.43 0.00 1011.2
20260506000243 11 248 4.8 4.8 0.00 0.43 0.00 1011.3
20260505235245 11 8 1.6 1.6 0.00 0.43 0.00 1011.2
20260505234242 11 321 4.8 1.6 0.00 0.43 0.00 1011.2
20260505233245 11 321 6.4 9.7 0.00 0.43 0.00 1011.1
20260505232241 12 3 0.0 0.0 0.00 0.43 0.00 1011.2
20260505231242 11 336 4.8 6.4 0.00 0.43 0.00 1011.2
20260505230241 11 1 6.4 4.8 0.00 0.43 0.00 1011.1
20260505225242 11 325 3.2 3.2 0.00 0.43 0.00 1011.1
20260505224245 11 44 4.8 3.2 0.00 0.43 0.00 1010.9
20260505223242 12 359 6.4 4.8 0.00 0.43 0.00 1011.2
20260505222244 12 198 0.0 0.0 0.00 0.43 0.00 1011.4
20260505221241 12 198 0.0 0.0 0.00 0.43 0.00 1011.5
20260505220242 12 240 1.6 3.2 0.00 0.43 0.00 1011.6
20260505215242 12 295 0.0 0.0 0.00 0.25 0.43 1011.6
20260505214241 12 32 0.0 0.0 0.00 0.25 0.43 1011.7
20260505213244 12 24 0.0 4.8 0.00 0.25 0.43 1011.6
20260505212241 12 198 0.0 1.6 0.00 0.25 0.43 1011.6
20260505211242 12 142 0.0 0.0 0.00 0.25 0.43 1011.6
20260505210242 12 284 0.0 0.0 0.00 0.25 0.43 1011.5
20260505205245 12 319 0.0 0.0 0.00 0.25 0.43 1011.5
20260505204248 13 107 0.0 0.0 0.00 0.25 0.43 1011.4
20260505203250 12 107 0.0 0.0 0.00 0.25 0.43 1011.2
20260505202253 12 107 1.6 0.0 0.00 0.25 0.43 1011.1
20260505201241 12 122 4.8 4.8 0.00 0.25 0.43 1011.0
20260505200242 12 124 4.8 3.2 0.00 0.25 0.43 1010.8
20260505195241 13 111 4.8 3.2 0.00 0.25 0.43 1010.6
20260505194243 13 217 0.0 0.0 0.00 0.25 0.43 1010.4
20260505193242 13 217 0.0 0.0 0.00 0.25 0.43 1010.3
20260505192244 13 4 0.0 0.0 0.00 0.25 0.43 1010.0
20260505191247 13 309 3.2 6.4 0.00 0.25 0.43 1010.1
20260505190242 13 343 4.8 0.0 0.00 0.25 0.43 1009.9
20260505185243 13 347 9.7 3.2 0.03 0.25 0.43 1010.0
20260505184241 13 302 0.0 4.8 0.03 0.25 0.43 1010.1
20260505183241 13 58 4.8 3.2 0.03 0.25 0.43 1010.0
20260505182242 13 44 1.6 4.8 0.03 0.25 0.43 1009.7
20260505181242 13 129 1.6 0.0 0.03 0.25 0.43 1009.7